Dewpoint
57 57 58 57 57 56 56 56 57 56 53 52 53 53 55 57 57 57 55 55 55 54 52 50 50 52 51 51 51 51 51 52 54 55 56 56 56 57 57 57 57 58 60 61 61 62 62 62 61 63 63 64 63 63 64 64 63 63 64 64 64 64 64 62 61 60 62 65 65 65 66 67 67 68 67 67 68 66 64 66 66 66 66 66 64
55 56 56 57 56 54 55 56 56 57 54 54 54 52 53 57 57 55 55 54 54 52 50 50 51 51 51 50 51 51 51 50 52 54 54 55 55 56 57 56 56 56 60 60 60 61 62 61 61 61 63 62 63 63 63 63 61 62 64 64 64 64 65 63 62 61 61 64 64 64 65 67 64 68 67 67 67 68 66 67 68 67 66 66 66
54 55 56 55 55 55 56 57 57 55 54 54 54 53 52 56 55 54 53 53 53 52 51 51 51 51 50 50 50 50 50 50 52 53 53 53 53 54 55 55 56 56 56 58 60 61 60 59 60 62 62 61 61 63 62 61 62 63 62 62 62 62 63 64 63 61 62 62 64 64 65 65 64 65 67 67 67 67 67 67 66 66 67 68 67
55 54 55 56 55 55 54 56 55 55 55 56 53 53 52 55 55 54 53 54 52 53 52 50 50 51 50 49 49 49 49 50 50 51 51 52 51 51 52 53 54 55 56 57 58 59 59 60 61 62 62 61 62 62 62 62 63 63 63 63 63 63 64 63 63 62 62 61 63 64 65 64 65 66 66 67 67 67 67 67 67 66 67 68 68
53 53 54 55 55 55 55 54 55 55 56 55 53 52 52 55 56 51 53 52 51 54 54 52 51 50 51 49 49 49 48 48 49 50 51 50 49 50 50 52 54 55 56 58 59 61 60 60 60 61 61 61 61 62 63 63 62 62 62 63 63 63 63 63 63 63 62 61 62 63 64 64 66 66 66 66 67 67 67 67 67 67 67 67 68
53 54 54 54 54 54 55 56 52 54 54 54 54 53 53 53 53 54 52 51 51 53 53 53 52 49 48 48 49 48 48 48 49 48 47 47 48 49 50 51 52 53 55 57 58 61 60 59 60 61 61 61 60 61 62 62 62 61 62 61 62 62 62 62 62 61 62 61 61 61 63 63 64 64 67 65 65 65 65 66 66 66 66 66 67
53 54 54 54 53 55 52 55 52 54 53 54 53 52 53 53 52 52 52 51 51 51 53 51 52 50 48 50 49 49 49 49 50 50 47 46 47 48 50 50 51 53 55 55 57 58 60 60 60 61 61 61 61 61 62 61 61 60 60 61 62 62 62 62 62 62 62 62 62 62 62 63 63 62 65 66 65 65 64 64 64 65 64 65 66
53 52 52 52 51 52 55 54 53 52 53 55 53 55 53 54 53 53 52 52 52 50 51 52 52 51 50 50 50 51 50 49 50 49 47 47 48 49 49 50 51 52 54 54 56 57 60 60 61 61 61 62 62 62 62 61 61 62 62 61 62 61 61 62 61 61 61 61 61 60 61 61 61 63 64 64 64 63 65 64 63 63 63 64 64
52 51 51 51 53 55 54 52 53 51 54 51 53 51 53 54 54 52 52 52 53 51 50 51 51 51 50 50 50 51 52 53 51 48 48 48 49 49 50 51 52 52 52 54 55 58 58 61 62 61 61 62 62 61 60 62 62 61 62 62 61 61 60 61 60 60 60 60 60 60 60 61 61 61 60 61 61 61 63 64 63 63 63 63 65
52 50 49 50 52 48 49 52 49 52 49 51 52 54 52 54 55 53 51 51 51 51 51 51 51 51 50 50 50 53 54 52 50 47 46 48 48 50 51 52 52 52 52 53 55 56 59 60 60 60 60 61 61 55 53 55 58 61 62 62 61 61 61 61 61 60 60 59 59 59 59 59 60 60 60 61 63 62 62 61 62 63 63 62 63
51 50 48 48 49 47 47 50 49 48 48 50 53 49 52 56 53 51 52 51 52 51 51 49 50 52 51 51 51 52 54 50 45 40 41 43 48 50 50 51 52 52 52 52 54 55 58 59 61 61 60 61 60 53 51 52 51 51 52 55 58 60 60 61 60 61 60 59 60 60 59 59 60 60 62 61 61 61 61 61 61 62 61 60 58
51 50 48 50 48 45 48 45 47 48 50 48 50 52 51 51 49 49 51 51 51 52 51 49 49 51 53 52 52 52 53 49 40 40 41 41 44 48 50 51 52 53 52 52 53 55 56 58 61 60 60 60 62 59 57 52 49 49 49 49 49 48 49 56 58 59 59 59 60 60 60 59 60 60 61 61 61 61 61 61 60 61 61 60 60
49 49 48 46 44 54 46 46 42 44 47 50 54 51 51 48 50 49 50 51 51 50 49 50 50 50 52 51 51 52 53 42 40 41 41 40 41 46 49 51 52 53 53 52 53 55 56 57 59 59 59 59 59 61 60 57 53 51 51 52 53 51 45 44 47 57 59 60 60 58 58 59 59 59 60 61 60 60 61 60 60 60 59 59 59
49 46 46 45 45 46 44 44 44 46 49 51 48 48 47 48 51 52 51 50 50 49 49 50 50 50 51 51 51 51 53 46 40 41 41 40 40 42 49 51 53 53 53 53 55 57 57 57 57 58 60 59 56 56 60 60 60 59 59 57 53 53 51 48 49 51 57 60 59 56 56 57 57 57 58 59 61 60 60 60 60 59 59 56 57
47 47 47 46 50 46 43 43 44 45 47 47 50 47 49 51 49 50 51 50 49 49 49 49 50 50 51 51 50 51 52 41 40 40 40 41 41 45 52 54 55 55 55 55 57 57 56 56 57 57 58 55 52 52 56 58 60 60 55 53 51 50 49 48 50 56 57 56 55 54 53 54 54 54 55 59 61 61 61 61 61 60 59 59 58
40 45 45 46 43 43 43 44 49 43 44 50 49 49 50 50 50 52 52 51 50 50 50 49 49 50 51 51 51 52 50 39 40 41 40 40 42 51 52 54 55 54 54 57 57 56 54 54 55 55 57 52 48 42 46 53 59 57 54 52 51 50 49 47 43 46 52 53 52 51 49 48 46 49 50 54 59 61 62 62 61 61 60 57 55
37 45 43 41 44 43 43 46 43 50 47 45 43 47 48 50 49 50 49 49 49 50 50 49 49 49 50 50 53 53 51 43 39 41 40 40 45 50 51 52 53 54 55 55 56 53 53 52 52 52 53 52 46 39 40 47 59 56 54 53 52 51 51 50 45 43 43 43 43 43 43 43 44 44 44 45 51 58 60 59 58 59 58 55 55
39 39 40 40 44 44 43 41 44 45 49 43 47 51 51 52 48 50 49 49 50 50 50 48 48 50 51 51 52 51 51 46 41 41 40 40 46 49 50 51 53 54 55 56 56 53 53 54 53 49 49 49 41 40 40 52 58 56 54 52 52 51 52 53 53 50 43 43 43 44 45 46 46 46 45 45 48 54 58 56 57 58 57 56 54
41 39 40 39 41 43 46 45 46 50 44 47 50 49 50 51 52 50 50 50 50 49 47 47 48 51 54 54 49 51 52 47 41 40 40 40 44 47 48 50 53 55 53 55 55 55 51 50 49 45 45 43 39 40 40 52 57 56 54 53 52 52 53 53 53 53 54 54 54 54 52 51 53 52 51 46 47 52 55 56 57 58 56 56 54
41 44 43 47 47 47 52 51 51 50 42 48 51 51 50 50 49 48 51 47 44 45 48 47 49 51 53 52 51 54 54 51 45 40 40 40 41 46 48 51 51 51 51 54 54 55 53 51 48 40 38 38 39 40 42 46 56 56 55 54 53 53 54 53 53 53 53 52 52 52 52 52 49 48 48 48 48 50 49 52 54 57 55 53 52
44 43 46 46 43 43 44 48 51 50 51 51 47 49 51 47 48 51 50 48 46 47 48 48 49 51 52 53 51 53 51 52 48 40 40 40 40 41 46 52 47 47 49 50 51 50 49 49 48 43 38 38 39 42 43 47 53 57 56 54 54 53 52 53 53 52 51 52 52 52 50 50 49 48 48 46 45 45 46 46 49 51 53 52 50
47 42 42 40 42 47 51 51 51 49 52 52 51 48 47 47 47 46 47 49 45 42 44 49 51 50 51 51 52 50 51 52 50 41 39 39 39 39 44 46 46 47 51 51 50 49 49 47 46 42 38 38 39 43 44 46 49 56 54 47 46 46 53 53 52 51 51 50 49 48 48 47 46 46 44 43 42 44 42 42 43 44 46 49 51
43 43 43 43 49 49 52 52 51 49 50 50 48 47 48 48 48 48 47 45 44 43 43 45 47 50 51 50 52 50 50 49 44 46 39 38 38 38 38 41 39 52 50 49 49 49 48 47 46 43 38 38 39 40 44 46 50 50 44 44 44 45 49 51 50 50 49 49 48 47 47 46 45 43 42 40 41 41 40 41 41 41 43 44 44
45 46 49 46 49 51 49 51 51 51 50 49 48 46 47 47 46 45 44 43 43 41 41 45 49 49 48 48 49 48 50 48 44 43 43 38 38 37 37 37 38 48 50 48 49 48 47 45 43 38 39 39 39 39 40 43 46 42 44 44 45 46 53 50 50 50 49 48 47 47 46 45 43 41 41 41 40 40 40 41 40 40 40 41 41
48 48 48 48 49 47 48 48 48 48 48 48 47 48 47 46 45 44 42 43 43 42 46 45 48 47 46 48 48 48 49 50 47 43 40 39 37 37 37 37 38 41 49 48 47 44 40 38 38 38 38 39 40 40 40 40 40 40 42 43 51 50 53 49 49 50 48 47 46 46 45 45 45 45 45 44 43 43 42 42 42 42 42 42 42
48 47 47 49 50 48 47 48 48 49 49 48 49 48 47 45 43 41 42 42 42 45 48 44 44 44 44 46 47 48 49 50 49 46 45 45 41 37 37 39 42 41 43 41 39 37 37 37 38 38 38 40 47 49 49 48 40 40 40 43 50 52 49 48 48 47 46 46 45 45 45 46 46 47 48 47 46 44 43 42 42 43 43 41 38
49 48 48 47 49 48 48 46 46 47 48 47 45 43 41 42 42 42 41 43 49 49 45 45 43 42 44 47 48 47 47 50 50 48 47 48 45 43 43 43 42 41 44 42 41 42 42 41 41 41 39 40 43 44 44 42 48 48 48 49 49 47 47 47 47 47 46 45 44 44 45 45 46 47 44 43 42 42 42 42 41 39 41 38 37
49 48 48 47 46 47 46 43 45 46 47 46 43 42 40 40 43 50 49 46 47 50 50 46 44 43 45 47 48 45 47 48 48 48 50 46 43 41 42 43 42 45 45 46 47 46 45 41 44 47 47 48 48 48 48 49 46 44 42 41 41 43 45 48 48 45 44 43 42 42 42 43 41 39 37 36 36 37 38 39 41 39 38 37 32
49 49 48 46 47 46 46 46 44 42 43 43 44 43 42 46 49 47 49 49 47 45 43 47 44 46 46 43 44 47 45 46 48 42 42 38 42 45 38 36 41 45 43 37 44 47 47 45 45 46 45 43 44 45 43 44 42 44 46 43 41 40 41 39 39 38 39 38 37 38 36 35 36 37 37 38 40 38 39 37 34 32 29 30 29
50 48 47 46 46 46 46 45 44 43 42 40 39 44 36 38 48 48 49 36 33 35 39 47 45 47 49 45 43 46 48 46 38 38 37 36 36 35 35 36 35 38 37 34 41 44 43 42 43 42 41 41 38 37 36 36 38 37 39 37 39 38 35 35 35 36 38 38 36 35 36 34 32 31 30 31 33 35 35 37 38 37 33 31 30
47 47 46 45 44 47 45 45 44 43 43 43 42 42 39 42 33 33 38 36 35 33 35 35 34 34 43 45 40 37 37 37 38 38 37 37 36 35 35 35 35 35 34 35 42 41 40 39 39 36 37 38 36 36 35 35 35 36 36 36 33 35 33 34 35 35 36 36 37 35 35 35 34 33 32 33 33 32 32 32 33 34 32 31 31
48 47 46 46 46 45 44 45 46 46 44 42 41 38 39 38 40 34 33 35 34 34 34 35 35 35 34 38 47 41 37 37 37 38 37 36 35 35 34 34 35 35 35 34 35 35 35 32 32 33 34 35 34 34 34 33 34 32 34 35 36 36 36 38 39 37 37 37 37 35 37 37 35 35 35 34 33 33 33 31 31 30 31 32 33
50 50 48 48 46 44 46 53 51 50 46 43 43 40 36 38 38 38 38 32 33 34 34 36 35 35 36 36 37 37 38 37 37 37 37 37 36 35 34 34 33 35 35 40 39 38 38 34 35 32 32 33 33 33 32 35 33 34 36 36 37 38 38 41 41 39 36 36 34 33 32 32 33 32 31 33 33 32 34 33 33 32 32 32 31
52 50 48 48 48 49 50 48 46 46 45 43 41 40 37 40 36 39 37 37 38 39 34 33 35 35 35 36 37 37 37 37 37 37 37 36 36 35 35 41 38 37 37 38 37 37 35 36 34 32 33 33 35 34 35 35 35 36 36 38 38 38 40 39 35 34 34 34 32 33 33 36 36 34 33 32 34 34 34 32 34 33 32 32 31
53 46 40 43 48 48 46 45 45 45 45 44 48 40 41 41 40 39 37 37 35 35 36 37 35 35 35 33 36 37 37 37 37 37 36 36 36 35 35 43 40 34 35 35 34 35 36 36 35 38 37 36 37 37 37 38 36 37 36 35 37 39 37 34 35 35 35 37 38 38 36 34 33 34 33 33 32 31 32 33 33 33 33 34 34
52 50 53 50 49 48 46 46 45 45 45 45 44 42 42 38 36 35 34 35 36 34 32 37 36 35 35 35 36 37 37 37 37 36 36 36 36 36 42 39 33 33 34 36 37 37 41 41 40 39 39 37 37 37 34 37 36 34 34 33 33 34 35 35 35 36 36 34 32 32 34 35 35 33 34 35 34 31 31 33 33 33 34 33 33
50 49 50 53 48 48 47 46 47 46 42 47 51 47 45 39 39 35 40 37 36 32 34 38 39 37 36 38 37 36 36 37 37 36 36 36 35 38 39 36 34 36 34 32 34 37 38 38 38 37 38 37 36 35 36 35 36 34 34 36 37 36 37 36 33 31 32 32 35 37 37 36 37 36 35 32 31 32 33 33 33 31 31 30 31
51 50 50 53 50 49 48 47 45 40 48 45 45 44 43 38 37 36 37 34 31 33 32 37 39 36 35 36 40 36 36 36 36 36 35 35 34 37 38 37 34 34 36 35 36 36 37 38 38 38 37 38 37 35 36 37 37 38 39 38 36 34 34 33 34 37 38 38 38 37 33 35 34 34 31 32 32 33 33 32 33 31 30 30 32
50 45 43 43 43 51 49 46 45 45 49 48 46 46 44 41 39 37 36 34 32 30 29 35 39 38 37 37 35 38 35 36 35 35 37 37 37 36 35 34 34 34 36 36 38 33 36 37 36 37 37 38 36 38 38 38 39 38 37 35 35 36 35 37 38 38 38 38 38 37 35 34 34 34 33 32 31 32 33 33 35 35 32 31 32
47 47 46 39 46 46 46 45 44 46 45 46 44 43 40 38 37 37 36 35 35 30 27 27 39 38 37 36 35 35 33 34 34 34 34 34 35 35 34 34 35 36 37 36 37 34 36 36 38 37 39 38 38 38 38 37 39 39 38 36 36 37 39 40 38 38 37 38 35 34 35 35 33 32 32 33 34 35 33 30 29 31 33 34 31
44 46 44 42 44 47 46 48 48 47 45 44 44 43 42 42 42 37 36 37 35 32 29 28 28 38 38 35 35 34 34 34 33 33 33 34 34 34 34 35 35 37 37 35 35 33 37 34 37 38 39 38 38 38 38 38 39 39 37 35 37 35 40 41 40 38 38 35 35 33 33 33 33 33 32 31 34 33 31 31 30 30 31 29 34
46 46 46 47 46 44 47 46 47 43 45 45 44 43 42 43 40 38 36 37 35 33 30 28 26 26 35 35 35 35 35 33 34 33 35 35 35 35 34 34 35 36 36 36 35 35 36 35 36 38 39 39 39 39 38 40 40 39 36 35 36 38 36 38 38 38 36 34 34 34 33 32 31 31 32 34 31 31 31 30 32 32 32 32 31
48 47 46 47 48 47 46 47 46 46 45 45 45 43 47 45 44 41 43 36 36 35 33 30 27 24 32 34 34 33 34 33 32 33 34 34 35 35 35 34 34 35 37 38 36 34 36 37 38 36 39 39 40 39 38 39 38 39 36 37 37 37 38 37 35 37 34 34 33 33 34 32 31 31 32 32 33 32 32 33 31 32 31 32 30
46 45 46 46 45 47 46 47 46 46 45 43 45 45 43 44 43 43 41 40 38 36 34 32 29 25 34 34 33 33 34 34 33 33 33 34 35 35 36 36 35 36 38 38 36 34 38 38 38 38 40 40 40 42 39 39 39 39 39 38 36 35 38 37 35 37 33 33 33 32 33 31 31 31 30 31 32 31 31 32 32 31 31 32 32
48 46 46 44 46 46 51 46 46 46 43 43 45 45 43 44 43 42 40 39 37 36 36 33 31 30 31 36 35 34 34 34 33 33 33 34 34 35 36 37 38 39 39 37 37 38 39 40 40 38 41 38 41 42 41 42 41 37 40 39 37 34 37 40 38 38 36 34 32 32 32 31 31 31 32 32 32 32 31 32 31 31 30 30 29
45 44 43 44 44 44 45 47 46 46 45 44 45 45 45 46 45 44 45 42 39 41 40 38 35 31 30 36 35 34 34 35 35 33 33 35 34 35 36 36 37 37 36 36 37 38 35 35 40 39 40 41 41 41 40 42 44 40 41 44 39 38 39 41 42 40 38 37 34 32 32 32 33 32 32 33 31 32 32 33 33 31 31 29 29
45 43 43 45 45 44 44 47 47 48 46 45 44 45 45 46 45 43 41 40 41 41 45 45 41 35 30 35 35 35 35 35 35 33 33 34 34 35 37 39 37 37 36 37 41 41 40 37 39 42 42 41 42 41 39 38 39 41 42 41 40 39 39 39 41 42 41 39 37 34 33 32 32 31 31 31 31 32 31 32 31 31 31 30 28
43 42 42 42 44 44 45 47 52 45 50 48 46 46 44 44 45 44 43 41 40 41 41 41 40 37 32 31 35 35 35 34 34 33 32 33 33 34 37 39 39 39 39 38 39 38 39 40 40 42 41 41 41 41 40 39 38 38 39 37 40 40 39 36 40 41 41 40 38 38 38 35 33 33 32 33 32 31 31 30 30 30 30 28 26
42 42 43 44 43 44 44 47 53 53 52 52 50 47 44 43 43 43 45 46 45 43 40 39 39 37 33 31 30 34 34 33 33 32 31 32 33 33 34 37 39 40 38 38 38 38 40 41 41 41 43 43 41 41 42 40 39 38 39 38 38 34 35 35 38 41 39 41 39 39 38 37 35 33 33 33 33 31 30 31 29 29 28 28 26
43 42 43 43 43 44 47 49 51 50 48 48 49 50 47 46 46 48 48 50 51 48 48 45 46 41 37 42 40 33 32 33 32 32 32 32 33 34 33 34 36 37 38 41 40 41 40 40 42 40 41 43 43 42 40 40 40 39 38 36 34 34 35 36 37 36 38 40 39 38 37 36 36 33 33 32 31 30 30 29 28 28 28 27 25
42 42 42 43 43 47 50 50 50 50 51 51 48 47 48 48 47 49 49 48 47 47 46 45 43 41 38 38 38 36 33 31 32 33 34 34 34 34 34 35 35 37 38 41 41 40 42 40 39 40 39 39 40 41 40 37 36 34 33 33 33 33 33 34 34 34 34 34 35 34 33 32 32 31 31 31 30 30 29 28 27 27 26 26 25